Location: Unspecified
(0.0000°N, 0.0000°E)
Time: 18:02:02
(UTC+02:00)

Ariane H10 - Visible Passes

Search period start: 25 June 2016 00:00
Search period end: 05 July 2016 00:00
Orbit: 433 x 35038 km, 4.2° (Epoch: 24 June)

Date Brightness Start Highest point End Pass type
(mag) Time Alt. Az. Time Alt. Az. Time Alt. Az.
26 Jun 2.0 07:04:00 24° WSW 07:05:24 49° S 07:10:01 10° ESE visible
26 Jun 10.0 18:19:30 10° W 19:49:55 30° W 23:29:00 10° W visible
27 Jun 7.4 03:16:01 10° W 03:20:21 13° W 03:20:21 13° W visible
27 Jun 6.1 14:28:04 10° W 16:04:40 88° NW 00:02:39 74° ENE visible
28 Jun 5.5 10:58:20 10° W 18:52:16 67° ENE 20:40:39 10° E visible
29 Jun 2.5 07:32:12 10° WSW 07:35:01 52° S 07:42:18 10° E visible
29 Jun 10.5 19:04:04 10° W 20:19:06 21° W 22:40:48 10° W visible
30 Jun 6.1 14:59:00 10° W 16:44:56 78° W 00:30:48 83° NW visible
01 Jul 5.9 11:27:41 10° W 19:23:08 78° ENE 21:12:14 10° E visible
02 Jul 11.2 20:11:51 10° W 20:47:43 12° W 21:33:39 10° W visible
03 Jul 6.2 15:30:35 10° W 17:17:06 67° W 00:58:57 67° WNW visible
04 Jul 6.3 11:57:11 10° W 19:34:55 85° N 21:41:19 16° E visible
